[[{"header":{"parameterUnit":"m.s-1","parameterCategory":1,"la1":30.2991,"la2":30.254,"lo1":-89.0895,"lo2":-89.0444,"dy":0.0017,"dx":0.0017,"nx":28,"ny":28,"refTime":"2023-04-12T21:00:00:Z","depth":0,"parameterNumber":2,"parameterNumberName":"U-component_of_WINDS"},"data":[0,0,0,0,0,0,0,0,0,0,0,0,0,0,0,0,0,0,0,0,0,0,0,0,0,0,0,0,0,0,0,0,0,0,0,0,0,0,0,0,0,0,0,0,0,0,0,0,0,0,0,0,0,0,0,0,0,0,6.9288,6.9291,0,6.9567,6.957,6.9573,6.9523,6.9518,6.9513,6.9508,6.9798,6.981,6.9822,0,0,0,0,0,0,0,0,0,0,0,0,0,6.8715,6.8725,6.9288,6.9292,6.9295,6.9566,6.957,6.9574,6.9523,6.9517,6.9511,6.9506,6.9794,6.9809,6.9824,0,0,0,0,0,0,0,0,0,0,0,0,0,6.8976,6.8729,6.9288,6.9302,6.9306,6.9566,6.957,6.9575,6.9525,6.9517,6.951,6.9503,6.9789,6.9807,6.9826,7.0089,0,0,6.9882,6.989,0,0,0,0,0,0,0,0,6.8961,6.8997,6.9297,6.9302,6.9307,6.9502,6.9474,6.9748,6.9527,6.9442,6.9508,6.9499,6.9706,6.9731,6.98,7.0103,7.0115,6.9884,6.9895,6.9903,6.9908,0,0,0,0,0,0,0,6.8943,6.8985,6.9399,6.9301,6.9307,6.9296,6.9325,6.9526,6.9613,6.9449,6.9446,6.9479,6.9707,6.9782,6.9806,7.0119,6.9883,6.99,6.9911,6.9919,7.065,7.0658,0,0,0,0,0,0,6.892,6.897,6.939,6.9407,6.9112,6.9312,6.9345,6.9447,6.961,6.9628,6.9485,6.9476,6.9754,6.9785,6.9816,7.0133,6.9903,6.992,6.9931,7.0641,7.0651,7.066,0,0,0,0,0,0,6.8907,6.8958,6.9378,6.9188,6.924,6.933,6.9446,6.9457,6.9531,6.9638,6.9653,6.9545,6.9749,6.979,7.0021,7.0143,6.9929,6.9946,7.0632,7.0644,7.0656,7.0771,0,0,0,0,0,0,6.8891,6.8953,6.9054,6.919,6.9251,6.9578,6.9453,6.9467,6.9563,6.9553,6.9698,6.9715,6.9747,6.9993,7.0039,7.0165,6.996,7.0621,7.0637,7.0652,7.0757,7.0786,7.0811,0,0,0,0,0,6.8871,6.9077,6.9059,6.911,6.9378,6.9585,6.962,6.965,6.9573,6.9675,6.9743,6.9711,7.0122,7.0017,7.0068,7.0201,7.0613,7.0633,7.0651,7.0745,7.078,7.081,0,0,0,0,0,0,6.8956,6.9095,6.9077,6.9334,6.9447,6.9576,6.9706,6.9687,6.9827,6.9812,6.9846,6.9879,7.0113,7.018,7.0061,7.0463,7.0357,7.0387,7.0411,7.0446,7.0472,7.0451,6.9975,0,0,0,0,0,6.9004,6.9159,6.9273,6.9488,6.9546,6.9616,6.9707,6.9721,6.9841,6.9889,6.9974,7.0093,7.0249,7.0351,7.05,7.0766,7.0796,7.0883,7.091,7.0931,7.0957,7.11,7.1139,7.0722,7.0722,7.0721,0,0,6.9106,6.9201,6.9297,6.9508,6.9597,6.9757,6.9657,6.9832,6.9951,6.9916,7.0138,7.0205,7.0339,7.0588,7.0702,7.0651,7.1078,7.0955,7.0972,7.0986,7.1123,7.1162,7.1198,7.0734,7.0732,7.073,0,0,6.9372,6.9461,6.9648,6.9739,6.9876,6.992,6.9965,7.0097,7.0139,7.0361,7.0338,7.048,7.0749,7.0845,7.0929,7.1229,7.1204,7.1277,7.1418,7.1557,7.159,7.162,7.1725,7.1763,7.1302,7.1302,7.1302,0,6.9482,6.9722,6.9748,6.9924,7.0016,6.9989,7.0179,7.0267,7.0447,7.0511,7.0452,7.0785,7.0875,7.1144,7.1217,7.1286,7.1338,7.126,7.1583,7.1613,7.1641,7.1741,7.1781,7.131,7.1309,7.1308,7.1308,0,6.9849,7.0015,7.015,7.0321,7.0429,7.0611,7.0665,7.0771,7.0775,7.0826,7.1052,7.1157,7.1326,7.1391,7.1398,7.1662,7.1625,7.1575,7.1468,7.1688,7.1783,7.1822,7.1321,7.1318,7.1316,7.1314,0,0,7.0179,7.0358,7.0408,7.0483,7.0631,7.076,7.0941,7.1104,7.1193,7.1317,7.1469,7.1695,7.1648,7.1743,7.176,7.1882,7.2111,7.1816,7.182,7.1866,7.2406,7.2442,7.2486,7.2095,7.2102,7.2108,7.2393,0,7.0458,7.0775,7.0802,7.1087,7.124,7.1216,7.1373,7.148,7.1532,7.167,7.1728,7.1887,7.1814,7.1871,7.1991,7.2057,7.2219,7.2037,7.2236,7.2243,7.2202,7.2536,7.2576,7.284,7.2431,7.2438,7.2442,0,7.0827,7.0958,7.1258,7.138,7.1446,7.1586,7.1736,7.1869,7.199,7.2019,7.2123,7.2123,7.2308,7.2195,7.2451,7.2326,7.2409,7.2454,7.2465,7.2484,7.2355,7.2563,7.2926,7.2965,7.2501,7.2497,7.2492,0,7.1035,7.1288,7.1499,7.1564,7.1714,7.1812,7.1879,7.1992,7.2088,7.222,7.2281,7.2434,7.2518,7.2636,7.2676,7.259,7.293,7.282,7.2959,7.2958,7.3031,7.3026,7.3411,7.3087,7.3086,7.3086,7.3085,0,7.1344,7.1528,7.1593,7.1723,7.1928,7.1958,7.216,7.2222,7.2322,7.2463,7.2453,7.2586,7.2631,7.2772,7.2806,7.3011,7.305,7.3078,7.3084,7.3079,7.3075,7.3133,7.3115,7.3096,7.3094,7.3092,7.309,0,7.1612,7.1663,7.1891,7.2012,7.2047,7.2192,7.2296,7.2421,7.2469,7.2648,7.2692,7.2769,7.2934,7.2986,7.3186,7.3208,7.3448,7.3439,7.3406,7.3407,7.3542,7.3528,7.3977,7.4036,7.3675,7.3678,7.3681,0,7.1805,7.1945,7.208,7.2173,7.2243,7.2393,7.2489,7.2523,7.2624,7.277,7.2878,7.304,7.3172,7.3437,7.3511,7.3663,7.3657,7.3804,7.368,7.3669,7.3657,7.3648,7.3661,7.3827,7.3831,7.3834,7.3836,0,7.2142,7.2159,7.2297,7.2444,7.2558,7.2676,7.279,7.2867,7.2917,7.3031,7.3198,7.33,7.3502,7.3663,7.3818,7.3887,7.3871,7.3874,7.3914,7.3909,7.3884,7.3897,7.3468,7.3864,7.3861,7.3859,7.3858,7.3857,7.2378,7.25,7.2612,7.2766,7.2854,7.296,7.3082,7.3144,7.3284,7.3449,7.3461,7.3642,7.3757,7.3962,7.4039,7.4181,7.4138,7.4197,7.4211,7.4225,7.4234,7.3861,7.4209,7.4208,7.4208,7.4207,7.4207,0,7.2712,7.2782,7.2923,7.308,7.3201,7.3172,7.3296,7.3399,7.3557,7.3665,7.3793,7.3984,7.414,7.4225,7.438,7.4477,7.4473,7.4517,7.4509,7.4525,7.4264,7.4213,7.4517,7.4517,7.4517,7.4517,7.4517,7.4517,7.29,7.3104,7.3135,7.3383,7.3452,7.3627,7.3699,7.3796,7.3882,7.4095,7.4223,7.4277,7.4376,7.4537,7.4678,7.4699,7.4756,7.4804,7.4821,7.4576,7.4544,7.4513,7.4466,7.4817,7.4817,7.5069,7.5072,7.5073]},{"header":{"parameterUnit":"m.s-1","parameterCategory":1,"la1":30.2991,"la2":30.254,"lo1":-89.0895,"lo2":-89.0444,"dy":0.0017,"dx":0.0017,"nx":28,"ny":28,"refTime":"2023-04-12T21:00:00:Z","depth":0,"parameterNumber":3,"parameterNumberName":"V-component_of_WINDS"},"data":[0,0,0,0,0,0,0,0,0,0,0,0,0,0,0,0,0,0,0,0,0,0,0,0,0,0,0,0,0,0,0,0,0,0,0,0,0,0,0,0,0,0,0,0,0,0,0,0,0,0,0,0,0,0,0,0,0,0,1.9284,1.9285,0,1.9363,1.9363,1.9364,1.9348,1.9346,1.9345,1.9343,1.9424,1.9427,1.9431,0,0,0,0,0,0,0,0,0,0,0,0,0,1.9118,1.9121,1.9284,1.9285,1.9286,1.9362,1.9364,1.9365,1.9348,1.9346,1.9344,1.9343,1.9423,1.9427,1.9431,0,0,0,0,0,0,0,0,0,0,0,0,0,1.9193,1.9122,1.9284,1.9287,1.9288,1.9362,1.9364,1.9365,1.9348,1.9346,1.9344,1.9342,1.9421,1.9427,1.9432,1.9508,0,0,1.9448,1.945,0,0,0,0,0,0,0,0,1.9188,1.9199,1.9285,1.9287,1.9288,1.9343,1.9335,1.9413,1.9349,1.9325,1.9343,1.9341,1.9399,1.9406,1.9425,1.9512,1.9515,1.9448,1.9451,1.9454,1.9455,0,0,0,0,0,0,0,1.9183,1.9195,1.9315,1.9287,1.9288,1.9284,1.9292,1.9349,1.9373,1.9327,1.9326,1.9336,1.9399,1.942,1.9427,1.9516,1.9448,1.9453,1.9456,1.9458,1.9668,1.9671,0,0,0,0,0,0,1.9177,1.9191,1.9312,1.9317,1.9232,1.9289,1.9298,1.9328,1.9373,1.9377,1.9337,1.9335,1.9412,1.9421,1.943,1.9522,1.9454,1.9459,1.9462,1.9666,1.9669,1.9671,0,0,0,0,0,0,1.9174,1.9188,1.9309,1.9254,1.9269,1.9294,1.9327,1.933,1.9351,1.938,1.9385,1.9355,1.9411,1.9422,1.9488,1.9524,1.9461,1.9466,1.9663,1.9667,1.967,1.9707,0,0,0,0,0,0,1.9169,1.9187,1.9217,1.9255,1.9272,1.9367,1.933,1.9333,1.9361,1.9358,1.9398,1.9402,1.941,1.9481,1.9494,1.953,1.947,1.966,1.9665,1.9669,1.9702,1.9711,1.9718,0,0,0,0,0,1.9163,1.9224,1.9218,1.9233,1.931,1.9369,1.9379,1.9387,1.9364,1.9393,1.9412,1.9401,1.9518,1.9488,1.9502,1.9541,1.9658,1.9663,1.9669,1.9699,1.9709,1.9718,0,0,0,0,0,0,1.9189,1.9229,1.9223,1.9298,1.933,1.9366,1.9404,1.9398,1.9437,1.9433,1.9441,1.945,1.9517,1.9535,1.9501,1.9617,1.9585,1.9593,1.9602,1.9613,1.9621,1.9615,1.9474,0,0,0,0,0,1.9204,1.9249,1.9281,1.9344,1.9361,1.938,1.9406,1.9409,1.9443,1.9456,1.9479,1.9512,1.9556,1.9586,1.9628,1.9704,1.9713,1.9738,1.9746,1.9753,1.976,1.9801,1.9813,1.9689,1.9689,1.9689,0,0,1.9235,1.9262,1.929,1.935,1.9376,1.9422,1.9391,1.9442,1.9476,1.9464,1.9528,1.9546,1.9583,1.9654,1.9687,1.9672,1.9796,1.976,1.9765,1.9769,1.9808,1.982,1.983,1.9693,1.9692,1.9692,0,0,1.9314,1.9339,1.9394,1.942,1.9459,1.9471,1.9484,1.952,1.9532,1.9596,1.9587,1.9628,1.9704,1.9731,1.9754,1.9842,1.9834,1.9856,1.9898,1.9938,1.9948,1.9957,1.9988,1.9999,1.9863,1.9863,1.9863,0,1.9347,1.9417,1.9423,1.9475,1.9501,1.9491,1.9547,1.9572,1.9622,1.964,1.9622,1.9717,1.9741,1.9819,1.984,1.9859,1.9874,1.9852,1.9946,1.9955,1.9963,1.9993,2.0005,1.9865,1.9865,1.9865,1.9865,0,1.9456,1.9504,1.9544,1.9592,1.9623,1.9676,1.969,1.9721,1.972,1.9734,1.9799,1.9828,1.9875,1.9894,1.9894,1.9971,1.996,1.9944,1.9912,1.9977,2.0005,2.0017,1.9869,1.9868,1.9867,1.9867,0,0,1.9555,1.9606,1.962,1.9642,1.9683,1.972,1.9773,1.9819,1.9845,1.9879,1.9923,1.9987,1.9972,1.9999,2.0002,2.0037,2.0104,2.0017,2.0017,2.0032,2.019,2.0202,2.0215,2.0099,2.0101,2.0102,2.0187,0,1.9638,1.9731,1.9737,1.982,1.9865,1.9856,1.9901,1.9931,1.9945,1.9984,1.9999,2.0044,2.0021,2.0037,2.0071,2.0089,2.0136,2.0083,2.0139,2.0141,2.0131,2.023,2.0243,2.0321,2.0198,2.02,2.0201,0,1.9748,1.9786,1.9873,1.9907,1.9926,1.9967,2.0009,2.0047,2.008,2.0088,2.0117,2.0115,2.0168,2.0134,2.0206,2.017,2.0193,2.0205,2.0208,2.0214,2.0175,2.0239,2.0346,2.0358,2.0218,2.0217,2.0216,0,1.9812,1.9884,1.9946,1.9964,2.0006,2.0035,2.0053,2.0084,2.0111,2.0148,2.0166,2.0208,2.0232,2.0264,2.0274,2.0248,2.0346,2.0313,2.0354,2.0353,2.0375,2.0374,2.0489,2.039,2.039,2.0389,2.0389,0,1.9904,1.9958,1.9975,2.0013,2.0072,2.0079,2.0138,2.0155,2.0182,2.0223,2.0217,2.0255,2.0265,2.0305,2.0313,2.0372,2.0382,2.0389,2.0391,2.039,2.0389,2.0406,2.0401,2.0393,2.0392,2.0391,2.0391,0,1.9985,1.9999,2.0065,2.0099,2.0108,2.0151,2.0179,2.0216,2.0228,2.0279,2.0292,2.0312,2.0358,2.037,2.0426,2.0431,2.05,2.0497,2.0489,2.0489,2.0529,2.0525,2.0659,2.0677,2.0566,2.0567,2.0568,0,2.0044,2.0085,2.0122,2.0149,2.0169,2.0212,2.024,2.0247,2.0276,2.0316,2.0348,2.0393,2.043,2.0505,2.0524,2.0566,2.0563,2.0607,2.057,2.0568,2.0564,2.0562,2.0566,2.0615,2.0616,2.0617,2.0618,0,2.0145,2.015,2.019,2.0232,2.0264,2.0298,2.033,2.0352,2.0364,2.0397,2.0444,2.0473,2.0529,2.0574,2.0617,2.0635,2.0629,2.0629,2.0641,2.0641,2.0635,2.0638,2.0509,2.0626,2.0625,2.0625,2.0624,2.0624,2.0217,2.0253,2.0285,2.0329,2.0354,2.0384,2.0419,2.0436,2.0475,2.0522,2.0524,2.0575,2.0606,2.0663,2.0684,2.0723,2.071,2.0727,2.0732,2.0736,2.0739,2.0628,2.0731,2.0731,2.0731,2.0731,2.073,0,2.0318,2.0338,2.0379,2.0424,2.0458,2.0448,2.0483,2.0513,2.0558,2.0588,2.0624,2.0678,2.0721,2.0744,2.0787,2.0814,2.0812,2.0825,2.0824,2.0828,2.0749,2.0734,2.0826,2.0826,2.0826,2.0826,2.0826,2.0826,2.0375,2.0435,2.0443,2.0515,2.0534,2.0585,2.0605,2.0632,2.0656,2.0717,2.0753,2.0767,2.0793,2.0838,2.0877,2.0883,2.0899,2.0914,2.0917,2.0843,2.0833,2.0824,2.0811,2.0917,2.0917,2.0993,2.0994,2.0994]}]]